Oak Island, MN

8:54 PM CST on February 24, 2017 (GMT -0600)
Flag Island

Weather History for KFGN - January, 2013

Change the Weather History Date:

Sunday, January 13, 2013

  Actual Average Record
Temperature  
Mean Temperature -10 °F -  
Max Temperature 0 °F 9 °F 26 °F (2006)
Min Temperature -20 °F -3 °F -36 °F (2009)
Degree Days  
Heating Degree Days 75    
Moisture  
Dew Point -15 °F    
Average Humidity 79    
Maximum Humidity 85    
Minimum Humidity 70    
Precipitation  
Precipitation 0.00 in - - ()
Sea Level Pressure  
Sea Level Pressure 30.07 in    
Wind  
Wind Speed 5 mph (WNW)    
Max Wind Speed 16 mph    
Max Gust Speed -    
Visibility 10 miles    
Events      
Averages and records for this station are not official NWS values.
T = Trace of Precipitation, MM = Missing Value Source: NWS Daily Summary

Daily Weather History Graph

Daily Weather History Graph

Search for Another Location

Airport or City:

Trip Planner

Search our weather history database for the weather conditions in past years. The results will help you decide how hot, cold, wet, or windy it might be!

Date:

Astronomy

Jan. 13, 2013 Rise Set
Actual Time 8:10 AM CST 4:46 PM CST
Civil Twilight 7:34 AM CST 5:23 PM CST
Nautical Twilight 6:54 AM CST 6:02 PM CST
Astronomical Twilight 6:16 AM CST 6:41 PM CST
Moon 8:54 AM CST (1/13) 7:44 PM CST (1/13)
Length of Visible Light 9h 48m
Length of Day
8h 35m
Waxing Crescent, 5% of the Moon is Illuminated
Jan 13
Waxing Crescent
Jan 18
First Quarter
Jan 26
Full
Feb 3
Last Quarter
Feb 10
New

Hourly Weather History & Observations

Time (CST) Temp. Windchill Dew Point Humidity Pressure Visibility Wind Dir Wind Speed Gust Speed Precip Events Conditions
12:13 AM -9.4 °F -24.3 °F -14.8 °F 77% 30.08 in 10.0 mi WNW 6.9 mph - N/A   Clear
12:34 AM -9.4 °F -24.3 °F -14.8 °F 77% 30.08 in 10.0 mi WNW 6.9 mph - N/A   Clear
12:53 AM -11.2 °F -23.0 °F -16.6 °F 77% 30.09 in 10.0 mi NW 4.6 mph - N/A   Clear
1:13 AM -11.2 °F -24.8 °F -16.6 °F 77% 30.09 in 10.0 mi NW 5.8 mph - N/A   Clear
1:34 AM -11.2 °F -26.4 °F -16.6 °F 77% 30.08 in 10.0 mi NW 6.9 mph - N/A   Clear
1:53 AM -11.2 °F -27.8 °F -16.6 °F 77% 30.08 in 10.0 mi NW 8.1 mph - N/A   Clear
2:14 AM -11.2 °F -24.8 °F -16.6 °F 77% 30.07 in 10.0 mi NW 5.8 mph - N/A   Clear
2:34 AM -13.0 °F -28.6 °F -18.4 °F 77% 30.07 in 10.0 mi NW 6.9 mph - N/A   Clear
2:53 AM -13.0 °F -27.0 °F -18.4 °F 77% 30.07 in 10.0 mi NW 5.8 mph - N/A   Clear
3:14 AM -14.8 °F -29.1 °F -18.4 °F 84% 30.07 in 10.0 mi NW 5.8 mph - N/A   Clear
3:33 AM -14.8 °F -32.2 °F -18.4 °F 84% 30.06 in 10.0 mi NW 8.1 mph - N/A   Clear
3:53 AM -14.8 °F -33.5 °F -18.4 °F 84% 30.06 in 10.0 mi NW 9.2 mph - N/A   Clear
4:13 AM -14.8 °F -30.8 °F -18.4 °F 84% 30.06 in 10.0 mi NW 6.9 mph - N/A   Clear
4:33 AM -14.8 °F -29.1 °F -20.2 °F 77% 30.05 in 10.0 mi NW 5.8 mph - N/A   Clear
4:54 AM -16.6 °F -31.3 °F -20.2 °F 84% 30.04 in 10.0 mi NW 5.8 mph - N/A   Clear
5:13 AM -16.6 °F -32.9 °F -20.2 °F 84% 30.03 in 10.0 mi NW 6.9 mph - N/A   Clear
5:33 AM -16.6 °F -26.8 °F -20.2 °F 84% 30.03 in 10.0 mi NW 3.5 mph - N/A   Clear
5:54 AM -16.6 °F - -20.2 °F 84% 30.03 in 10.0 mi Calm Calm - N/A   Clear
6:13 AM -16.6 °F - -20.2 °F 84% 30.04 in 10.0 mi Calm Calm - N/A   Clear
6:33 AM -16.6 °F - -20.2 °F 84% 30.05 in 10.0 mi Calm Calm - N/A   Clear
6:54 AM -16.6 °F -31.3 °F -20.2 °F 84% 30.05 in 10.0 mi WNW 5.8 mph - N/A   Clear
7:13 AM -16.6 °F -31.3 °F -20.2 °F 84% 30.06 in 10.0 mi WNW 5.8 mph - N/A   Clear
7:33 AM -16.6 °F - -23.8 °F 70% 30.07 in 10.0 mi Calm Calm - N/A   Clear
7:54 AM -18.4 °F - -22.0 °F 84% 30.08 in 10.0 mi Calm Calm - N/A   Clear
8:13 AM -18.4 °F - -23.8 °F 76% 30.09 in 10.0 mi Calm Calm - N/A   Clear
8:33 AM -18.4 °F - -25.6 °F 70% 30.10 in 10.0 mi Calm Calm - N/A   Clear
8:54 AM -18.4 °F - -25.6 °F 70% 30.10 in 10.0 mi Calm Calm - N/A   Clear
9:13 AM -20.2 °F - -25.6 °F 76% 30.11 in 10.0 mi Calm Calm - N/A   Clear
9:33 AM -20.2 °F - -25.6 °F 76% 30.11 in 10.0 mi Calm Calm - N/A   Clear
9:54 AM -18.4 °F -28.9 °F -23.8 °F 76% 30.10 in 10.0 mi SSE 3.5 mph - N/A   Clear
10:13 AM -16.6 °F - -23.8 °F 70% 30.10 in 10.0 mi Calm Calm - N/A   Clear
10:33 AM -16.6 °F - -20.2 °F 84% 30.10 in 10.0 mi Calm Calm - N/A   Clear
10:54 AM -14.8 °F -24.8 °F -18.4 °F 84% 30.10 in 10.0 mi SE 3.5 mph - N/A   Clear
11:13 AM -13.0 °F -22.7 °F -18.4 °F 77% 30.09 in 10.0 mi SE 3.5 mph - N/A   Clear
11:33 AM -11.2 °F -20.6 °F -16.6 °F 77% 30.09 in 10.0 mi SE 3.5 mph - N/A   Clear
11:54 AM -11.2 °F - -16.6 °F 77% 30.08 in 10.0 mi Calm Calm - N/A   Clear
12:13 PM -9.4 °F -18.6 °F -14.8 °F 77% 30.07 in 10.0 mi SSE 3.5 mph - N/A   Clear
12:33 PM -9.4 °F - -14.8 °F 77% 30.06 in 10.0 mi Calm Calm - N/A   Clear
12:54 PM -9.4 °F -18.6 °F -14.8 °F 77% 30.05 in 10.0 mi SSE 3.5 mph - N/A   Clear
1:13 PM -9.4 °F -18.6 °F -13.0 °F 84% 30.05 in 10.0 mi South 3.5 mph - N/A   Clear
1:33 PM -9.4 °F -18.6 °F -13.0 °F 84% 30.04 in 10.0 mi SSE 3.5 mph - N/A   Clear
1:54 PM -9.4 °F -20.9 °F -13.0 °F 84% 30.04 in 10.0 mi SSE 4.6 mph - N/A   Clear
2:13 PM -9.4 °F -20.9 °F -13.0 °F 84% 30.03 in 10.0 mi SSE 4.6 mph - N/A   Clear
2:33 PM -7.6 °F -18.8 °F -13.0 °F 77% 30.03 in 10.0 mi SSE 4.6 mph - N/A   Clear
2:54 PM -7.6 °F -20.6 °F -13.0 °F 77% 30.04 in 10.0 mi SSE 5.8 mph - N/A   Clear
3:13 PM -7.6 °F -18.8 °F -13.0 °F 77% 30.04 in 10.0 mi SSE 4.6 mph - N/A   Clear
3:33 PM -9.4 °F -20.9 °F -13.0 °F 84% 30.04 in 10.0 mi SSE 4.6 mph - N/A   Clear
3:54 PM -7.6 °F -16.5 °F -13.0 °F 77% 30.04 in 10.0 mi ESE 3.5 mph - N/A   Mostly Cloudy
4:13 PM -7.6 °F -16.5 °F -11.2 °F 84% 30.05 in 10.0 mi SSE 3.5 mph - N/A   Overcast
4:33 PM -5.8 °F -14.5 °F -9.4 °F 84% 30.05 in 10.0 mi SSE 3.5 mph - N/A   Overcast
4:54 PM -5.8 °F -14.5 °F -9.4 °F 84% 30.05 in 10.0 mi South 3.5 mph - N/A   Overcast
5:13 PM -5.8 °F - -9.4 °F 84% 30.05 in 10.0 mi Calm Calm - N/A   Overcast
5:33 PM -5.8 °F - -9.4 °F 84% 30.05 in 10.0 mi Calm Calm - N/A   Overcast
5:53 PM -4.0 °F - -9.4 °F 78% 30.06 in 10.0 mi Calm Calm - N/A   Overcast
6:13 PM -4.0 °F - -9.4 °F 78% 30.07 in 10.0 mi Calm Calm - N/A   Overcast
6:34 PM -4.0 °F - -7.6 °F 85% 30.07 in 10.0 mi Calm Calm - N/A   Overcast
6:53 PM -2.2 °F -18.9 °F -7.6 °F 78% 30.07 in 10.0 mi WNW 10.4 mph - N/A   Overcast
7:13 PM -0.4 °F -18.4 °F -5.8 °F 78% 30.08 in 10.0 mi WNW 12.7 mph - N/A   Overcast
7:34 PM -2.2 °F -21.5 °F -5.8 °F 85% 30.08 in 10.0 mi NW 13.8 mph - N/A   Overcast
7:53 PM -2.2 °F -22.9 °F -7.6 °F 78% 30.08 in 10.0 mi NW 16.1 mph - N/A   Overcast
8:13 PM -2.2 °F -21.5 °F -7.6 °F 78% 30.09 in 10.0 mi NW 13.8 mph - N/A   Overcast
8:34 PM -2.2 °F -18.9 °F -7.6 °F 78% 30.09 in 10.0 mi NW 10.4 mph - N/A   Overcast
8:53 PM -2.2 °F -19.9 °F -7.6 °F 78% 30.09 in 10.0 mi NW 11.5 mph - N/A   Overcast
9:13 PM -2.2 °F -18.9 °F -7.6 °F 78% 30.10 in 10.0 mi NW 10.4 mph - N/A   Overcast
9:34 PM -2.2 °F -20.7 °F -7.6 °F 78% 30.11 in 10.0 mi WNW 12.7 mph - N/A   Overcast
9:53 PM -2.2 °F -19.9 °F -7.6 °F 78% 30.11 in 10.0 mi NW 11.5 mph - N/A   Overcast
10:13 PM -2.2 °F -19.9 °F -7.6 °F 78% 30.11 in 10.0 mi NW 11.5 mph - N/A   Overcast
10:34 PM -2.2 °F -21.5 °F -7.6 °F 78% 30.12 in 10.0 mi NW 13.8 mph - N/A   Overcast
10:53 PM -2.2 °F -21.5 °F -7.6 °F 78% 30.12 in 10.0 mi NW 13.8 mph - N/A   Overcast
11:13 PM -2.2 °F -20.7 °F -7.6 °F 78% 30.13 in 10.0 mi NW 12.7 mph - N/A   Overcast
11:34 PM -2.2 °F -20.7 °F -7.6 °F 78% 30.14 in 10.0 mi NW 12.7 mph - N/A   Overcast
11:53 PM -2.2 °F -19.9 °F -9.4 °F 71% 30.14 in 10.0 mi WNW 11.5 mph - N/A   Overcast